Time,TemperatureF,DewpointF,PressureIn,WindDirection,WindDirectionDegrees,WindSpeedMPH,WindSpeedGustMPH,Humidity,HourlyPrecipIn,Conditions,Clouds,dailyrainin,SolarRadiationWatts/m^2,SoftwareType,DateUTC
2013-02-06 00:01:00,30.0,26.0,29.88,ESE,105,3.0,4.0,85,-99.99,,,-99.99,-0.100000,,2013-02-06 07:01:00,
2013-02-06 00:11:00,30.0,26.0,29.88,NE,53,2.0,3.0,84,-99.99,,,-99.99,-0.100000,,2013-02-06 07:11:00,
2013-02-06 00:21:00,29.0,25.0,29.89,NE,55,3.0,4.0,85,-99.99,,,-99.99,-0.100000,,2013-02-06 07:21:00,
2013-02-06 00:32:00,28.0,25.0,29.89,ESE,113,4.0,5.0,86,-99.99,,,-99.99,-0.100000,,2013-02-06 07:32:00,
2013-02-06 00:41:00,29.0,25.0,29.88,ESE,108,3.0,4.0,86,-99.99,,,-99.99,-0.100000,,2013-02-06 07:41:00,
2013-02-06 00:51:00,29.0,25.0,29.88,ESE,103,2.0,3.0,85,-99.99,,,-99.99,-0.100000,,2013-02-06 07:51:00,
2013-02-06 01:01:00,29.0,25.0,29.89,SE,125,1.0,2.0,84,-99.99,,,-99.99,-0.100000,,2013-02-06 08:01:00,
2013-02-06 01:11:00,29.0,25.0,29.89,North,354,4.0,5.0,84,-99.99,,,-99.99,0.000000,,2013-02-06 08:11:00,
2013-02-06 01:21:00,28.0,24.0,29.89,NNW,332,1.0,2.0,84,-99.99,,,-99.99,-0.100000,,2013-02-06 08:21:00,
2013-02-06 01:31:00,27.0,24.0,29.89,ESE,122,2.0,3.0,86,-99.99,,,-99.99,-0.200000,,2013-02-06 08:31:00,
2013-02-06 01:41:00,28.0,24.0,29.89,SE,124,3.0,5.0,86,-99.99,,,-99.99,-0.100000,,2013-02-06 08:41:00,
2013-02-06 01:53:00,27.0,24.0,29.89,ESE,120,4.0,5.0,87,-99.99,,,-99.99,-0.100000,,2013-02-06 08:53:00,
2013-02-06 02:01:00,28.0,24.0,29.89,SE,131,3.0,4.0,86,-99.99,,,-99.99,-0.100000,,2013-02-06 09:01:00,
2013-02-06 02:11:00,28.0,24.0,29.89,North,-999,1.0,1.0,85,-99.99,,,-99.99,-0.100000,,2013-02-06 09:11:00,
2013-02-06 02:21:00,27.0,23.0,29.89,SSW,207,2.0,3.0,86,-99.99,,,-99.99,-0.100000,,2013-02-06 09:21:00,
2013-02-06 02:31:00,27.0,24.0,29.90,South,187,4.0,4.0,87,-99.99,,,-99.99,-0.100000,,2013-02-06 09:31:00,
2013-02-06 02:41:00,27.0,24.0,29.90,SSW,204,4.0,5.0,87,-99.99,,,-99.99,-0.100000,,2013-02-06 09:41:00,
2013-02-06 02:51:00,27.0,23.0,29.90,SSW,206,9.0,11.0,86,-99.99,,,-99.99,-0.100000,,2013-02-06 09:51:00,
2013-02-06 03:01:00,29.0,25.0,29.90,SW,216,12.0,13.0,84,-99.99,,,-99.99,-0.100000,,2013-02-06 10:01:00,
2013-02-06 03:11:00,30.0,25.0,29.90,SW,215,12.0,15.0,81,-99.99,,,-99.99,-0.100000,,2013-02-06 10:11:00,
2013-02-06 03:21:00,32.0,26.0,29.90,SW,214,10.0,12.0,78,-99.99,,,-99.99,-0.100000,,2013-02-06 10:21:00,
2013-02-06 03:31:00,32.0,26.0,29.90,SW,222,9.0,12.0,77,-99.99,,,-99.99,-0.100000,,2013-02-06 10:31:00,
2013-02-06 03:41:00,32.0,26.0,29.90,SW,228,10.0,15.0,76,-99.99,,,-99.99,0.000000,,2013-02-06 10:41:00,
2013-02-06 03:51:00,33.0,26.0,29.90,SW,222,12.0,14.0,76,-99.99,,,-99.99,-0.100000,,2013-02-06 10:51:00,
2013-02-06 04:01:00,33.0,27.0,29.91,SW,218,13.0,15.0,78,-99.99,,,-99.99,-0.100000,,2013-02-06 11:01:00,
2013-02-06 04:11:00,32.0,27.0,29.91,SW,215,12.0,16.0,80,-99.99,,,-99.99,0.000000,,2013-02-06 11:11:00,
2013-02-06 04:21:00,32.0,27.0,29.91,SSW,201,11.0,13.0,82,-99.99,,,-99.99,-0.100000,,2013-02-06 11:21:00,
2013-02-06 04:31:00,32.0,27.0,29.92,SW,216,9.0,13.0,81,-99.99,,,-99.99,0.000000,,2013-02-06 11:31:00,
2013-02-06 04:41:00,31.0,26.0,29.93,WSW,247,6.0,8.0,81,-99.99,,,-99.99,-0.100000,,2013-02-06 11:41:00,
2013-02-06 04:52:00,31.0,27.0,29.93,SW,232,7.0,9.0,81,-99.99,,,-99.99,0.100000,,2013-02-06 11:52:00,
2013-02-06 05:01:00,31.0,26.0,29.93,SW,221,10.0,14.0,83,-99.99,,,-99.99,-0.200000,,2013-02-06 12:01:00,
2013-02-06 05:12:00,31.0,27.0,29.93,SW,224,11.0,14.0,83,-99.99,,,-99.99,-0.100000,,2013-02-06 12:12:00,
2013-02-06 05:21:00,31.0,27.0,29.94,SW,224,13.0,15.0,83,-99.99,,,-99.99,0.000000,,2013-02-06 12:21:00,
2013-02-06 05:32:00,31.0,27.0,29.94,SW,227,14.0,17.0,84,-99.99,,,-99.99,-0.100000,,2013-02-06 12:32:00,
2013-02-06 05:41:00,32.0,28.0,29.94,SW,226,19.0,23.0,84,-99.99,,,-99.99,-0.100000,,2013-02-06 12:41:00,
2013-02-06 05:52:00,31.0,28.0,29.95,WSW,238,19.0,26.0,86,-99.99,,,-99.99,0.000000,,2013-02-06 12:52:00,
2013-02-06 06:01:00,31.0,28.0,29.95,SW,228,16.0,23.0,87,-99.99,,,-99.99,0.000000,,2013-02-06 13:01:00,
2013-02-06 06:11:00,31.0,28.0,29.96,SW,217,17.0,23.0,88,-99.99,,,-99.99,-0.100000,,2013-02-06 13:11:00,
2013-02-06 06:21:00,31.0,28.0,29.96,SW,221,14.0,17.0,89,-99.99,,,-99.99,0.000000,,2013-02-06 13:21:00,
2013-02-06 06:31:00,31.0,28.0,29.97,SW,229,14.0,17.0,89,-99.99,,,-99.99,0.000000,,2013-02-06 13:31:00,
2013-02-06 06:41:00,31.0,28.0,29.96,WSW,237,16.0,20.0,89,-99.99,,,-99.99,-0.100000,,2013-02-06 13:41:00,
2013-02-06 06:51:00,31.0,28.0,29.96,SW,227,15.0,19.0,89,-99.99,,,-99.99,0.000000,,2013-02-06 13:51:00,
2013-02-06 07:01:00,31.0,28.0,29.96,SW,221,16.0,22.0,89,-99.99,,,-99.99,0.000000,,2013-02-06 14:01:00,
2013-02-06 07:11:00,31.0,28.0,29.96,SW,221,16.0,21.0,88,-99.99,,,-99.99,-0.100000,,2013-02-06 14:11:00,
2013-02-06 07:21:00,31.0,28.0,29.96,SW,218,16.0,21.0,88,-99.99,,,-99.99,-0.100000,,2013-02-06 14:21:00,
2013-02-06 07:31:00,31.0,28.0,29.97,SW,235,14.0,17.0,88,-99.99,,,-99.99,0.000000,,2013-02-06 14:31:00,
2013-02-06 07:41:00,31.0,28.0,29.98,WSW,237,13.0,19.0,87,-99.99,,,-99.99,-0.100000,,2013-02-06 14:41:00,
2013-02-06 07:52:00,31.0,28.0,29.98,WSW,248,15.0,19.0,87,-99.99,,,-99.99,0.100000,,2013-02-06 14:52:00,
2013-02-06 08:01:00,30.0,27.0,29.98,WSW,241,17.0,24.0,88,-99.99,,,-99.99,0.500000,,2013-02-06 15:01:00,
2013-02-06 08:11:00,30.0,27.0,29.98,SW,231,15.0,18.0,89,-99.99,,,-99.99,1.500000,,2013-02-06 15:11:00,
2013-02-06 08:21:00,30.0,27.0,29.99,WSW,245,12.0,17.0,89,-99.99,,,-99.99,4.000000,,2013-02-06 15:21:00,
2013-02-06 08:31:00,30.0,28.0,30.00,WSW,240,13.0,17.0,89,-99.99,,,-99.99,8.600000,,2013-02-06 15:31:00,
2013-02-06 08:41:00,31.0,28.0,30.01,WSW,240,13.0,16.0,89,-99.99,,,-99.99,5.900000,,2013-02-06 15:41:00,
2013-02-06 08:51:00,31.0,28.0,30.01,WSW,250,10.0,15.0,89,-99.99,,,-99.99,8.100000,,2013-02-06 15:51:00,
2013-02-06 09:01:00,31.0,28.0,30.01,WSW,252,11.0,14.0,89,-99.99,,,-99.99,7.600000,,2013-02-06 16:01:00,
2013-02-06 09:11:00,31.0,28.0,30.02,WSW,247,9.0,12.0,88,-99.99,,,-99.99,10.100000,,2013-02-06 16:11:00,
2013-02-06 09:21:00,31.0,28.0,30.02,WSW,240,9.0,10.0,88,-99.99,,,-99.99,13.800000,,2013-02-06 16:21:00,
2013-02-06 09:31:00,31.0,28.0,30.03,SW,234,9.0,13.0,88,-99.99,,,-99.99,22.799999,,2013-02-06 16:31:00,
2013-02-06 09:41:00,31.0,28.0,30.03,WSW,250,9.0,11.0,87,-99.99,,,-99.99,22.200001,,2013-02-06 16:41:00,
2013-02-06 09:51:00,31.0,28.0,30.04,SW,236,12.0,15.0,87,-99.99,,,-99.99,32.700001,,2013-02-06 16:51:00,
2013-02-06 10:01:00,32.0,28.0,30.04,SW,225,14.0,20.0,84,-99.99,,,-99.99,28.400000,,2013-02-06 17:01:00,
2013-02-06 10:11:00,32.0,27.0,30.04,SW,224,15.0,21.0,83,-99.99,,,-99.99,28.200001,,2013-02-06 17:11:00,
2013-02-06 10:21:00,32.0,27.0,30.05,SW,228,17.0,20.0,83,-99.99,,,-99.99,45.700001,,2013-02-06 17:21:00,
2013-02-06 10:32:00,32.0,27.0,30.05,SW,228,17.0,22.0,83,-99.99,,,-99.99,53.099998,,2013-02-06 17:32:00,
2013-02-06 10:41:00,31.0,27.0,30.05,SW,221,17.0,22.0,83,-99.99,,,-99.99,51.400002,,2013-02-06 17:41:00,
2013-02-06 10:52:00,31.0,27.0,30.05,SW,227,19.0,24.0,82,-99.99,,,-99.99,41.400002,,2013-02-06 17:52:00,
2013-02-06 11:01:00,31.0,26.0,30.05,SW,224,15.0,19.0,82,-99.99,,,-99.99,80.000000,,2013-02-06 18:01:00,
2013-02-06 11:11:00,32.0,27.0,30.05,SW,234,19.0,22.0,81,-99.99,,,-99.99,326.500000,,2013-02-06 18:11:00,
2013-02-06 11:22:00,32.0,27.0,30.05,SW,235,18.0,22.0,79,-99.99,,,-99.99,263.799988,,2013-02-06 18:22:00,
2013-02-06 11:32:00,32.0,26.0,30.05,SW,233,18.0,22.0,79,-99.99,,,-99.99,238.399994,,2013-02-06 18:32:00,
2013-02-06 11:41:00,33.0,27.0,30.06,WSW,242,17.0,22.0,79,-99.99,,,-99.99,427.000000,,2013-02-06 18:41:00,
2013-02-06 11:52:00,32.0,27.0,30.06,WSW,241,17.0,21.0,79,-99.99,,,-99.99,250.699997,,2013-02-06 18:52:00,
2013-02-06 12:01:00,33.0,27.0,30.06,WSW,247,17.0,21.0,78,-99.99,,,-99.99,479.000000,,2013-02-06 19:01:00,
2013-02-06 12:11:00,33.0,27.0,30.06,WSW,249,15.0,21.0,77,-99.99,,,-99.99,320.399994,,2013-02-06 19:11:00,
2013-02-06 12:21:00,33.0,27.0,30.06,WSW,251,14.0,18.0,77,-99.99,,,-99.99,178.800003,,2013-02-06 19:21:00,
2013-02-06 12:31:00,33.0,26.0,30.06,WSW,251,15.0,19.0,77,-99.99,,,-99.99,210.199997,,2013-02-06 19:31:00,
2013-02-06 12:41:00,33.0,26.0,30.06,WSW,255,15.0,20.0,76,-99.99,,,-99.99,305.899994,,2013-02-06 19:41:00,
2013-02-06 12:52:00,34.0,27.0,30.05,WSW,241,18.0,23.0,74,-99.99,,,-99.99,606.000000,,2013-02-06 19:52:00,
2013-02-06 13:01:00,33.0,26.0,30.05,WSW,252,16.0,22.0,74,-99.99,,,-99.99,409.700012,,2013-02-06 20:01:00,
2013-02-06 13:11:00,34.0,27.0,30.05,West,262,14.0,19.0,75,-99.99,,,-99.99,411.700012,,2013-02-06 20:11:00,
2013-02-06 13:21:00,35.0,27.0,30.05,WSW,255,14.0,18.0,73,-99.99,,,-99.99,351.700012,,2013-02-06 20:21:00,
2013-02-06 13:31:00,35.0,27.0,30.05,WSW,248,14.0,18.0,72,-99.99,,,-99.99,423.399994,,2013-02-06 20:31:00,
2013-02-06 13:41:00,35.0,26.0,30.05,WSW,243,16.0,20.0,71,-99.99,,,-99.99,464.799988,,2013-02-06 20:41:00,
2013-02-06 13:52:00,36.0,27.0,30.05,West,261,15.0,20.0,70,-99.99,,,-99.99,562.200012,,2013-02-06 20:52:00,
2013-02-06 14:01:00,36.0,27.0,30.04,WSW,249,17.0,21.0,68,-99.99,,,-99.99,531.599976,,2013-02-06 21:01:00,
2013-02-06 14:11:00,36.0,27.0,30.04,WSW,243,20.0,23.0,67,-99.99,,,-99.99,516.900024,,2013-02-06 21:11:00,
2013-02-06 14:21:00,36.0,26.0,30.04,WSW,244,20.0,24.0,66,-99.99,,,-99.99,505.500000,,2013-02-06 21:21:00,
2013-02-06 14:31:00,36.0,27.0,30.05,WSW,255,14.0,19.0,68,-99.99,,,-99.99,491.299988,,2013-02-06 21:31:00,
2013-02-06 14:41:00,37.0,27.0,30.05,WSW,256,17.0,21.0,67,-99.99,,,-99.99,475.000000,,2013-02-06 21:41:00,
2013-02-06 14:51:00,37.0,27.0,30.05,WSW,255,14.0,18.0,66,-99.99,,,-99.99,459.200012,,2013-02-06 21:51:00,
2013-02-06 15:01:00,37.0,27.0,30.05,WSW,250,14.0,17.0,66,-99.99,,,-99.99,441.200012,,2013-02-06 22:01:00,
2013-02-06 15:11:00,37.0,27.0,30.05,WSW,243,14.0,19.0,66,-99.99,,,-99.99,422.600006,,2013-02-06 22:11:00,
2013-02-06 15:21:00,37.0,26.0,30.06,WSW,253,14.0,17.0,65,-99.99,,,-99.99,401.799988,,2013-02-06 22:21:00,
2013-02-06 15:31:00,37.0,27.0,30.06,West,267,9.0,11.0,67,-99.99,,,-99.99,381.600006,,2013-02-06 22:31:00,
2013-02-06 15:41:00,36.0,27.0,30.07,WSW,251,8.0,12.0,68,-99.99,,,-99.99,390.799988,,2013-02-06 22:41:00,
2013-02-06 15:51:00,37.0,27.0,30.07,WSW,240,9.0,11.0,66,-99.99,,,-99.99,344.500000,,2013-02-06 22:51:00,
2013-02-06 16:01:00,37.0,27.0,30.08,WSW,243,7.0,9.0,67,-99.99,,,-99.99,337.799988,,2013-02-06 23:01:00,
2013-02-06 16:11:00,37.0,27.0,30.08,SW,235,8.0,11.0,67,-99.99,,,-99.99,305.299988,,2013-02-06 23:11:00,
2013-02-06 16:21:00,36.0,27.0,30.08,WSW,240,8.0,11.0,69,-99.99,,,-99.99,114.199997,,2013-02-06 23:21:00,
2013-02-06 16:31:00,36.0,28.0,30.08,WSW,239,7.0,9.0,70,-99.99,,,-99.99,83.900002,,2013-02-06 23:31:00,
2013-02-06 16:41:00,36.0,28.0,30.08,West,260,7.0,9.0,71,-99.99,,,-99.99,123.400002,,2013-02-06 23:41:00,
2013-02-06 16:51:00,36.0,28.0,30.08,West,260,10.0,12.0,70,-99.99,,,-99.99,112.000000,,2013-02-06 23:51:00,
2013-02-06 17:01:00,36.0,28.0,30.08,WSW,250,8.0,12.0,71,-99.99,,,-99.99,148.899994,,2013-02-07 00:01:00,
2013-02-06 17:11:00,36.0,28.0,30.08,WSW,250,8.0,11.0,72,-99.99,,,-99.99,119.699997,,2013-02-07 00:11:00,
2013-02-06 17:21:00,36.0,28.0,30.09,WSW,239,8.0,10.0,72,-99.99,,,-99.99,93.199997,,2013-02-07 00:21:00,
2013-02-06 17:31:00,36.0,28.0,30.09,WSW,238,7.0,9.0,72,-99.99,,,-99.99,64.300003,,2013-02-07 00:31:00,
2013-02-06 17:41:00,35.0,28.0,30.09,SW,230,7.0,8.0,73,-99.99,,,-99.99,39.000000,,2013-02-07 00:41:00,
2013-02-06 17:51:00,34.0,27.0,30.09,SW,228,8.0,9.0,74,-99.99,,,-99.99,20.200001,,2013-02-07 00:51:00,
2013-02-06 18:01:00,33.0,27.0,30.10,SW,217,7.0,8.0,77,-99.99,,,-99.99,7.500000,,2013-02-07 01:01:00,
2013-02-06 18:11:00,31.0,26.0,30.10,SSW,202,6.0,7.0,80,-99.99,,,-99.99,3.200000,,2013-02-07 01:11:00,
2013-02-06 18:21:00,31.0,26.0,30.10,SSW,194,7.0,8.0,82,-99.99,,,-99.99,0.900000,,2013-02-07 01:21:00,
2013-02-06 18:31:00,30.0,26.0,30.11,SSW,200,7.0,9.0,82,-99.99,,,-99.99,0.000000,,2013-02-07 01:31:00,
2013-02-06 18:41:00,30.0,26.0,30.11,SSW,201,9.0,10.0,84,-99.99,,,-99.99,-0.100000,,2013-02-07 01:41:00,
2013-02-06 18:52:00,30.0,26.0,30.11,SSW,193,10.0,11.0,84,-99.99,,,-99.99,-0.100000,,2013-02-07 01:52:00,
2013-02-06 19:01:00,31.0,26.0,30.11,SSW,195,11.0,12.0,81,-99.99,,,-99.99,-0.100000,,2013-02-07 02:01:00,
2013-02-06 19:11:00,31.0,26.0,30.11,SSW,193,10.0,11.0,79,-99.99,,,-99.99,-0.100000,,2013-02-07 02:11:00,
2013-02-06 19:21:00,30.0,24.0,30.11,South,185,9.0,11.0,79,-99.99,,,-99.99,-0.100000,,2013-02-07 02:21:00,
2013-02-06 19:31:00,30.0,24.0,30.11,South,187,9.0,11.0,78,-99.99,,,-99.99,-0.100000,,2013-02-07 02:31:00,
2013-02-06 19:41:00,30.0,24.0,30.11,South,187,9.0,11.0,78,-99.99,,,-99.99,-0.100000,,2013-02-07 02:41:00,
2013-02-06 19:51:00,30.0,24.0,30.11,South,187,9.0,11.0,78,-99.99,,,-99.99,-0.100000,,2013-02-07 02:51:00,
2013-02-06 20:01:00,31.0,24.0,30.12,South,174,10.0,11.0,76,-99.99,,,-99.99,-0.100000,,2013-02-07 03:01:00,
2013-02-06 20:11:00,31.0,24.0,30.12,South,179,11.0,12.0,75,-99.99,,,-99.99,-0.100000,,2013-02-07 03:11:00,
2013-02-06 20:21:00,30.0,24.0,30.12,South,183,10.0,11.0,76,-99.99,,,-99.99,-0.100000,,2013-02-07 03:21:00,
2013-02-06 20:31:00,30.0,23.0,30.12,South,178,9.0,10.0,74,-99.99,,,-99.99,-0.100000,,2013-02-07 03:31:00,
2013-02-06 20:41:00,31.0,23.0,30.12,South,181,10.0,11.0,72,-99.99,,,-99.99,0.000000,,2013-02-07 03:41:00,
2013-02-06 20:51:00,30.0,23.0,30.12,South,178,9.0,10.0,73,-99.99,,,-99.99,-0.100000,,2013-02-07 03:51:00,
2013-02-06 21:01:00,30.0,22.0,30.12,South,179,10.0,11.0,71,-99.99,,,-99.99,-0.100000,,2013-02-07 04:01:00,
2013-02-06 21:11:00,31.0,22.0,30.12,South,175,10.0,11.0,69,-99.99,,,-99.99,-0.100000,,2013-02-07 04:11:00,
2013-02-06 21:21:00,31.0,22.0,30.12,South,176,11.0,12.0,69,-99.99,,,-99.99,-0.100000,,2013-02-07 04:21:00,
2013-02-06 21:31:00,30.0,22.0,30.12,South,173,9.0,10.0,70,-99.99,,,-99.99,-0.100000,,2013-02-07 04:31:00,
2013-02-06 21:41:00,31.0,22.0,30.12,South,178,9.0,11.0,68,-99.99,,,-99.99,-0.100000,,2013-02-07 04:41:00,
2013-02-06 21:52:00,30.0,21.0,30.13,South,172,9.0,10.0,69,-99.99,,,-99.99,-0.100000,,2013-02-07 04:52:00,
2013-02-06 22:01:00,30.0,21.0,30.13,South,173,9.0,10.0,68,-99.99,,,-99.99,-0.100000,,2013-02-07 05:01:00,
2013-02-06 22:11:00,30.0,21.0,30.13,South,170,9.0,11.0,68,-99.99,,,-99.99,-0.100000,,2013-02-07 05:11:00,
2013-02-06 22:21:00,30.0,21.0,30.13,South,169,8.0,10.0,68,-99.99,,,-99.99,-0.100000,,2013-02-07 05:21:00,
2013-02-06 22:32:00,29.0,21.0,30.13,South,187,4.0,7.0,71,-99.99,,,-99.99,-0.100000,,2013-02-07 05:32:00,
2013-02-06 22:42:00,30.0,21.0,30.13,SSE,162,10.0,11.0,69,-99.99,,,-99.99,-0.100000,,2013-02-07 05:42:00,
2013-02-06 22:52:00,31.0,21.0,30.13,SSE,162,10.0,12.0,66,-99.99,,,-99.99,-0.100000,,2013-02-07 05:52:00,
2013-02-06 23:01:00,31.0,21.0,30.12,SSE,167,9.0,11.0,67,-99.99,,,-99.99,-0.100000,,2013-02-07 06:01:00,
2013-02-06 23:11:00,31.0,21.0,30.12,SSE,159,9.0,11.0,66,-99.99,,,-99.99,0.000000,,2013-02-07 06:11:00,
2013-02-06 23:22:00,30.0,21.0,30.12,SSE,164,9.0,11.0,68,-99.99,,,-99.99,-0.100000,,2013-02-07 06:22:00,
2013-02-06 23:31:00,30.0,21.0,30.13,East,87,4.0,8.0,69,-99.99,,,-99.99,-0.100000,,2013-02-07 06:31:00,
2013-02-06 23:42:00,28.0,21.0,30.13,WNW,293,4.0,6.0,74,-99.99,,,-99.99,0.000000,,2013-02-07 06:42:00,
2013-02-06 23:52:00,27.0,21.0,30.13,NW,319,5.0,7.0,75,-99.99,,,-99.99,0.000000,,2013-02-07 06:52:00,